GFSMW_850_thetae_231.txt.gz
Theta_e
347 347 347 348 349 349 347 344 343 343 343 340 342 343 343 343 344 345 347 347 347 350 347 348 346 346 347 348 349 349 347 349 347 345 349 347 346 344 342 338 337 335 334
346 346 346 347 348 348 346 345 344 343 342 342 338 339 341 341 343 345 347 346 346 347 349 347 346 347 347 348 348 349 348 347 347 345 348 348 345 343 339 335 334 334 333
345 346 346 346 347 348 346 346 345 344 341 337 339 337 339 340 342 345 345 345 345 346 347 347 348 349 349 348 348 348 348 350 347 348 347 344 341 343 337 337 334 332 333
345 346 345 345 345 346 346 347 345 345 343 335 333 333 334 338 341 344 344 345 345 345 347 348 348 347 347 348 350 349 348 350 345 345 343 341 339 337 341 336 335 330 331
345 345 345 345 346 346 346 347 345 345 345 338 333 332 333 336 338 341 346 345 345 347 347 348 349 349 350 351 350 349 348 348 345 343 337 337 331 332 336 332 335 329 330
346 345 345 346 346 346 346 347 345 346 346 343 339 335 330 335 339 346 347 345 346 347 348 348 346 349 351 350 349 351 350 349 344 337 328 328 333 333 331 330 332 331 329
346 346 345 346 346 346 346 347 345 346 346 346 344 336 330 334 341 347 347 345 346 348 348 346 346 350 352 350 350 352 352 349 344 331 323 322 321 319 327 327 330 329 330
347 347 347 345 346 346 346 346 346 345 346 347 347 341 332 332 341 344 345 347 344 348 347 348 349 353 351 350 352 355 353 347 344 327 320 318 313 308 309 315 325 325 327
347 348 348 347 346 346 346 346 346 346 346 347 348 348 337 331 333 337 344 346 346 347 347 346 352 353 350 352 352 356 354 348 344 325 318 313 309 308 308 308 311 322 322
347 348 348 348 347 347 347 347 347 346 346 347 348 348 347 335 331 334 335 341 345 346 346 344 347 350 349 353 353 355 356 348 345 324 315 309 308 307 307 307 309 311 317
345 346 348 348 346 347 347 347 347 347 346 346 348 348 348 347 335 331 331 333 336 341 344 344 342 351 350 354 355 352 356 350 345 325 312 308 307 306 305 306 310 313 316
342 345 347 347 348 348 347 347 348 347 347 346 347 348 348 348 347 334 329 331 334 337 342 342 338 346 350 354 357 351 356 350 346 327 312 307 306 305 307 317 319 319 319
346 346 346 347 348 347 346 346 347 347 347 347 347 348 348 348 348 345 330 329 331 336 338 338 338 345 349 354 356 350 354 354 344 330 311 307 306 305 317 318 319 318 318
352 350 349 349 348 346 346 346 346 347 347 347 347 347 348 349 348 347 338 328 329 331 333 335 343 345 349 353 355 350 352 355 344 330 310 306 306 312 318 318 318 318 317
348 348 349 351 350 347 347 346 347 347 347 347 348 348 348 348 348 348 344 330 329 330 333 338 343 345 349 352 354 350 352 354 345 330 309 307 307 315 317 318 318 318 318
343 341 345 352 348 346 347 347 347 347 348 348 348 348 348 349 348 348 347 339 331 332 335 340 343 344 348 351 353 350 351 354 345 328 310 307 308 313 315 317 317 318 318
341 344 342 341 352 352 348 345 347 348 349 348 349 349 349 349 348 347 348 347 343 340 339 341 344 344 347 351 352 350 351 355 346 325 311 308 308 312 314 314 317 318 318
341 343 345 343 345 347 353 350 346 347 347 348 349 348 348 349 349 348 348 347 348 347 347 346 344 346 346 350 352 352 352 355 345 325 312 309 307 310 312 313 315 318 318
340 342 344 346 346 346 348 353 349 347 348 348 349 344 345 346 347 347 347 347 348 348 348 347 345 347 345 350 352 354 350 355 345 329 315 310 308 310 311 312 313 317 318
339 341 344 346 346 341 341 346 355 349 348 349 349 348 347 347 346 345 345 347 348 349 350 350 348 347 347 351 353 354 349 353 346 333 319 312 309 310 311 311 312 316 317
338 339 340 339 339 339 342 348 354 351 348 348 349 348 348 348 348 348 347 347 348 349 350 350 350 348 348 351 353 354 351 353 349 340 325 316 310 310 311 312 312 312 317
337 339 340 342 342 340 345 344 346 350 347 348 348 348 347 348 347 348 348 348 348 350 351 350 349 349 348 351 354 353 352 353 351 343 330 319 310 310 311 312 312 311 316
336 337 337 340 342 339 337 338 337 342 348 349 351 349 348 347 349 348 348 349 349 349 350 349 348 349 349 352 354 353 353 352 350 339 332 321 311 310 311 312 313 311 314
333 336 337 339 341 341 342 343 345 346 345 345 343 342 350 353 353 353 352 351 350 352 354 350 345 346 349 353 353 353 356 354 349 339 331 323 313 311 310 313 313 312 311
329 335 336 339 340 342 342 342 345 340 336 334 336 339 335 347 348 346 354 357 352 354 353 351 351 347 342 344 351 350 352 354 351 346 336 327 316 311 309 312 314 312 311
325 332 334 337 340 341 340 343 342 345 338 334 334 334 334 335 346 340 348 353 351 351 352 353 353 355 356 352 350 353 351 352 349 348 340 330 319 311 309 312 313 312 311

GFSMW_850_thetae_234.txt.gz
Theta_e
346 346 350 351 352 353 352 349 349 347 342 347 349 349 348 349 348 350 352 347 349 352 348 354 354 355 354 352 354 354 353 353 353 349 345 349 347 345 340 339 337 338 335
345 347 350 351 352 353 354 353 347 346 343 347 348 349 348 348 349 350 351 350 348 347 352 349 355 354 355 356 352 355 354 353 353 352 345 342 347 346 341 338 337 337 333
345 347 349 351 352 353 354 352 347 346 345 348 346 343 344 344 348 348 349 352 347 346 346 348 349 348 353 352 355 351 354 353 352 352 346 335 333 335 344 341 338 336 335
345 346 347 350 351 352 353 354 346 345 345 343 347 343 344 343 343 347 350 351 347 348 349 348 348 348 351 354 353 355 351 352 351 345 345 343 338 334 335 341 339 334 336
347 345 346 348 350 351 351 353 351 346 346 344 340 342 339 343 344 347 350 350 347 346 354 350 346 346 353 355 352 350 348 355 351 342 337 340 337 336 333 329 332 335 332
349 347 346 347 348 349 350 351 351 347 345 346 339 333 340 339 345 347 350 350 350 351 352 352 345 345 350 355 350 349 352 348 347 339 335 333 331 329 328 327 329 329 332
349 349 347 348 348 349 350 351 352 347 345 346 345 338 334 329 337 346 349 350 349 351 357 348 351 354 350 350 350 352 349 348 347 325 334 329 325 323 323 324 325 328 328
349 349 349 348 349 349 351 352 352 347 346 346 347 346 336 331 337 344 348 349 349 351 351 352 356 359 357 355 350 355 353 347 341 322 317 323 319 320 320 320 321 323 324
349 349 350 350 349 349 350 351 352 347 346 346 347 347 345 334 340 344 345 349 352 351 349 347 355 357 357 355 351 354 355 347 342 322 314 320 320 320 320 320 320 321 322
348 348 350 350 350 350 349 351 351 348 346 346 346 347 347 344 332 330 333 348 352 345 345 353 354 356 357 354 353 351 354 349 343 324 312 312 316 320 319 321 322 323 323
346 347 349 351 351 351 351 351 352 353 350 350 349 347 348 348 344 333 330 332 338 337 339 349 353 352 357 353 353 351 353 353 345 328 312 308 307 313 319 321 324 325 324
343 344 347 350 351 351 351 352 353 353 348 348 346 346 347 348 348 346 333 330 332 334 333 338 341 341 356 355 354 350 352 354 344 335 312 308 307 308 318 325 320 321 322
346 344 345 349 350 351 352 352 353 353 353 348 347 346 347 348 348 348 346 335 330 332 344 337 337 336 351 357 353 352 351 354 345 337 313 307 306 315 319 321 323 323 322
354 351 350 350 351 352 353 353 353 353 354 354 353 347 347 347 348 348 348 345 334 330 335 334 334 337 356 358 353 350 350 353 347 339 312 307 307 316 318 320 322 322 323
351 354 357 357 355 354 355 354 352 353 354 355 353 349 348 347 348 348 348 347 344 333 330 334 334 350 358 358 352 352 350 353 349 339 311 307 309 315 317 324 319 324 323
346 348 351 354 354 356 356 356 356 356 355 355 354 354 355 354 348 348 348 348 346 336 331 331 340 356 357 357 352 352 350 352 350 337 312 308 309 313 315 316 317 318 322
342 342 344 348 352 354 354 355 356 357 354 348 350 350 354 349 349 349 348 347 347 340 332 332 345 356 359 358 352 352 351 352 350 337 313 314 311 312 313 316 317 318 319
340 344 345 342 345 349 349 352 354 355 357 356 356 356 349 349 350 349 349 347 347 346 340 337 340 355 359 355 352 352 350 353 349 336 314 319 308 311 312 321 322 319 318
337 342 344 344 345 344 345 348 354 355 354 357 358 359 358 350 350 350 349 347 348 348 347 351 355 358 360 353 352 353 352 352 350 335 316 310 308 310 311 317 321 322 319
338 339 340 344 346 342 341 345 355 359 355 357 357 359 360 360 355 351 349 348 348 350 353 357 360 359 360 351 353 353 354 350 351 336 320 312 308 310 311 316 321 322 321
335 339 341 341 341 340 342 346 350 354 353 354 356 357 359 361 362 359 353 348 347 357 350 359 360 361 356 347 352 354 353 350 351 342 329 316 309 310 311 311 321 319 318
334 338 340 340 342 340 344 343 347 350 348 350 352 354 351 359 361 360 359 358 358 351 350 353 362 360 356 348 352 355 353 351 352 348 336 320 310 309 311 312 311 313 319
333 336 340 341 341 337 340 340 340 348 352 355 352 350 349 355 357 360 361 358 362 362 361 361 360 356 355 350 352 356 353 351 351 344 337 325 311 309 311 312 311 311 321
330 333 337 339 339 341 342 344 344 345 343 344 340 337 340 342 348 353 356 356 359 357 359 359 359 358 353 352 352 356 355 353 351 343 332 323 313 310 315 312 312 318 319
327 328 332 336 334 338 342 344 345 340 337 342 344 345 344 345 341 342 347 352 351 355 356 357 360 358 353 351 345 349 352 355 352 346 333 325 316 317 320 320 319 319 315
325 326 328 329 331 335 337 341 345 342 336 338 340 339 337 337 338 337 339 343 343 345 356 355 355 360 355 349 342 350 353 353 354 347 341 331 324 322 321 321 320 319 317

GFSMW_850_thetae_237.txt.gz
Theta_e
347 346 346 348 350 350 350 349 349 351 352 351 349 349 348 348 348 348 353 352 351 354 356 354 355 354 353 355 358 355 355 351 351 349 346 353 350 346 340 336 336 337 335
347 346 346 348 350 352 353 353 352 352 347 350 349 349 349 348 348 351 353 353 352 353 354 356 356 351 356 356 357 356 355 350 352 347 345 340 349 347 344 339 336 338 335
346 346 347 348 350 351 354 356 355 355 352 349 349 351 352 349 350 349 350 355 351 353 355 358 358 357 356 354 358 357 358 352 351 347 343 337 338 333 345 343 339 333 335
345 346 348 349 349 350 353 356 358 356 356 349 349 349 346 345 345 346 351 351 352 352 354 358 358 357 359 355 356 358 353 353 348 340 338 344 340 335 333 338 343 339 334
345 345 347 349 348 349 351 355 358 359 356 352 346 350 344 344 344 346 350 350 348 350 353 356 357 358 357 359 357 355 351 354 349 339 335 334 334 337 332 331 330 335 336
348 345 345 347 348 348 350 353 358 360 355 355 344 341 348 345 345 347 349 351 351 352 357 356 356 358 359 358 357 354 355 347 351 338 337 333 331 328 327 327 327 329 330
349 348 345 345 347 347 349 350 356 358 355 356 350 340 333 338 346 350 348 350 349 350 359 349 357 355 358 359 353 354 355 351 345 321 335 327 324 322 322 322 323 324 327
349 350 348 346 346 347 348 349 353 358 355 348 346 346 339 342 344 345 348 349 349 350 356 355 355 355 357 358 353 355 355 348 345 323 313 326 323 323 323 323 323 323 324
350 350 350 349 347 346 347 349 351 357 358 348 346 346 346 340 346 342 343 350 351 351 351 355 355 355 357 357 355 356 352 350 346 334 316 324 323 323 323 323 324 325 325
349 350 351 351 350 348 346 348 351 355 359 358 350 346 346 345 336 343 346 348 349 353 358 356 355 356 358 359 356 358 351 354 345 336 317 313 315 322 322 324 325 326 326
346 348 350 351 351 350 349 348 349 352 358 359 358 354 348 347 346 336 332 343 350 353 356 356 356 356 357 359 358 354 351 354 349 340 320 309 308 309 325 328 327 327 326
344 346 348 350 352 352 351 350 350 351 356 357 357 354 349 350 348 345 340 334 347 352 354 355 356 356 355 358 356 355 352 352 349 342 320 309 310 322 320 327 326 326 326
349 345 344 348 351 352 352 352 352 351 354 358 356 351 348 347 348 347 347 346 337 343 351 354 356 357 355 357 358 356 351 351 352 342 322 309 312 314 317 323 325 326 326
358 354 351 350 351 352 353 353 353 354 354 357 359 358 358 350 347 348 348 348 346 342 342 352 355 355 355 358 359 354 351 350 352 344 322 308 314 315 320 325 327 326 326
355 359 360 361 358 355 355 355 355 355 355 356 359 359 359 360 358 356 351 351 349 348 344 349 351 354 353 356 359 353 352 350 352 346 319 313 309 312 315 323 318 322 326
349 351 353 358 359 361 360 359 358 358 357 358 360 360 360 361 359 360 361 360 359 353 352 348 347 351 351 355 356 356 353 350 352 345 328 309 308 311 313 314 317 318 320
347 348 348 350 355 357 358 360 361 360 359 359 359 360 360 361 361 361 360 361 360 360 355 351 349 349 354 357 357 358 354 351 352 347 325 319 312 310 312 316 322 320 319
342 344 346 346 348 352 353 354 357 360 361 361 361 360 360 361 362 361 361 361 360 356 360 356 350 349 354 358 358 355 356 351 351 349 323 324 315 310 316 326 325 322 319
340 340 342 345 348 349 347 348 354 360 359 361 362 362 361 362 363 363 363 362 361 355 361 360 357 353 357 357 359 354 355 351 352 348 329 322 310 309 311 324 325 325 323
337 339 341 344 347 344 344 347 354 362 359 358 360 362 363 363 363 362 361 362 362 360 361 362 361 360 359 360 358 355 353 350 351 348 334 319 311 309 310 322 325 326 325
337 340 342 343 342 342 349 351 348 357 358 360 363 362 362 362 361 362 362 363 362 361 358 356 360 360 358 356 358 354 352 348 350 349 341 327 312 309 310 313 325 325 320
336 338 342 342 343 342 348 349 348 350 351 353 357 361 363 361 362 361 362 364 362 363 359 360 357 360 359 357 355 353 356 348 350 350 344 329 314 309 310 312 311 315 324
335 335 338 340 341 342 341 343 348 351 355 356 359 358 359 359 359 360 360 361 362 362 361 359 360 357 357 357 354 353 357 355 351 349 344 336 317 309 310 311 310 319 324
333 333 335 338 338 340 342 344 343 345 350 351 352 352 355 358 355 358 355 356 355 357 356 358 358 356 357 358 358 354 357 357 352 349 343 333 320 310 312 312 311 319 323
333 332 334 334 335 337 339 342 342 341 347 346 347 347 348 346 347 348 351 348 350 350 349 348 350 354 354 355 354 349 352 353 353 350 345 333 322 312 313 321 319 322 320
331 331 331 332 334 334 336 341 343 341 342 347 347 343 348 348 348 345 340 339 339 345 347 348 347 350 350 351 355 352 349 352 354 352 346 337 329 321 321 323 323 322 319

GFSMW_850_thetae_240.txt.gz
Theta_e
346 346 347 347 346 345 345 346 347 348 349 353 346 352 351 347 349 350 352 352 349 352 354 349 356 348 356 356 355 353 352 353 350 348 345 353 349 345 339 336 336 336 336
346 346 347 349 348 349 348 348 349 348 349 351 350 349 349 352 349 354 352 351 352 353 355 351 356 349 356 354 353 353 349 350 354 344 342 342 350 344 345 341 336 335 336
347 347 347 348 350 352 352 351 350 350 341 349 349 350 350 351 350 349 348 353 353 352 355 358 357 351 359 354 355 353 352 351 348 344 341 339 338 331 336 343 340 339 336
347 347 346 348 349 352 353 354 352 353 339 350 351 349 344 345 346 347 355 353 350 350 354 357 357 350 359 354 351 350 351 355 348 339 335 339 336 338 336 332 339 340 336
346 347 347 348 349 350 352 355 356 354 355 340 349 351 347 348 347 347 349 347 355 349 355 356 356 358 352 354 352 351 349 344 337 339 335 334 333 335 327 326 326 330 338
347 347 347 348 349 349 351 354 356 355 353 354 343 348 350 343 347 344 350 350 354 356 354 357 348 359 356 356 351 353 354 347 344 322 334 329 326 324 322 322 324 323 328
348 346 347 349 349 349 349 352 355 355 352 352 346 341 340 343 345 350 347 352 351 352 357 354 349 357 355 358 353 353 355 350 347 326 314 325 323 323 323 323 324 324 324
350 347 347 348 350 348 348 350 354 354 352 351 349 344 338 331 328 340 345 349 351 353 354 353 351 356 358 358 354 354 351 350 347 340 314 324 324 323 323 323 325 326 325
350 350 348 346 347 348 349 349 354 353 350 348 351 348 344 338 332 337 341 351 351 353 353 351 354 356 357 359 357 356 351 353 346 342 327 321 324 323 322 324 325 326 327
350 351 350 349 347 347 348 348 350 352 351 349 349 346 345 344 339 343 344 344 347 348 350 359 356 356 354 360 356 355 355 352 350 345 336 310 309 318 322 328 327 327 326
350 351 351 351 350 348 347 348 349 353 353 352 351 348 347 346 344 338 333 340 346 351 355 346 347 354 355 357 360 356 352 351 353 347 338 313 309 321 323 329 326 325 324
351 349 351 352 352 351 349 347 348 350 352 353 359 353 348 348 346 344 342 334 331 334 343 344 337 351 355 349 356 357 356 352 351 350 341 313 310 327 318 321 325 326 327
359 362 357 351 353 352 351 349 348 350 352 353 355 359 357 352 348 347 346 344 342 334 338 345 342 341 353 349 355 358 359 352 351 351 341 314 315 314 322 322 324 325 327
359 359 363 359 346 353 354 351 350 351 352 353 355 358 357 352 351 350 350 349 349 347 345 339 352 347 350 349 356 360 355 352 350 351 340 316 313 313 326 323 316 320 325
353 355 356 359 363 358 357 354 354 353 352 353 355 356 356 356 354 354 353 350 350 350 350 348 345 346 347 349 356 357 356 354 350 350 340 320 310 312 318 313 315 317 319
348 350 351 354 359 361 362 360 358 358 358 357 356 357 359 359 360 360 359 357 355 353 353 351 351 347 346 351 353 356 356 357 351 350 343 320 310 311 313 314 317 318 317
344 345 346 348 352 355 358 361 362 361 359 359 361 359 360 361 361 361 361 359 359 358 358 356 355 349 345 348 353 356 357 356 351 350 345 322 315 310 314 321 319 319 318
342 342 344 346 347 351 352 355 359 362 363 360 359 360 360 360 361 361 361 360 360 360 360 358 357 352 345 350 356 358 355 353 352 350 343 326 325 314 318 326 324 323 322
340 340 341 345 347 346 349 346 351 357 360 362 363 362 361 361 361 361 361 361 361 361 361 360 359 353 345 349 357 359 359 354 351 350 346 332 323 311 313 326 326 327 323
339 340 342 343 345 345 347 351 352 358 364 362 362 363 363 362 361 362 362 361 361 361 361 360 359 357 354 349 356 357 359 354 350 350 346 336 322 310 310 320 327 328 323
338 340 342 342 342 344 347 350 350 354 361 360 362 362 361 362 363 361 362 361 361 361 362 361 359 356 358 357 357 355 358 353 349 349 347 340 325 310 310 315 321 323 324
336 337 341 341 340 344 344 347 348 349 352 358 361 363 364 362 362 361 362 362 362 361 361 360 356 353 356 357 356 357 356 354 352 349 347 343 327 310 310 310 311 324 326
335 335 337 339 338 339 341 343 343 350 353 355 356 356 358 359 361 364 361 360 361 360 359 360 358 356 358 356 353 356 358 355 353 350 348 345 329 312 309 311 317 326 326
334 335 334 335 336 338 339 340 342 347 350 352 354 357 357 359 358 357 358 357 359 359 359 358 358 358 357 354 351 348 356 355 352 351 348 345 335 317 310 311 312 323 325
332 333 333 333 333 336 337 339 341 343 346 348 347 347 350 354 355 358 359 356 354 354 356 353 351 349 350 352 351 352 350 351 354 351 346 342 336 320 311 311 311 321 322
329 330 330 331 332 332 333 337 339 340 341 345 347 345 347 348 350 349 350 347 346 343 343 344 348 349 349 350 347 345 348 349 349 353 348 344 339 330 314 314 318 323 322

GFSMW_850_thetae_246.txt.gz
Theta_e
340 339 339 339 340 340 340 339 338 333 338 341 341 345 348 347 349 353 351 350 345 348 354 349 347 355 355 351 349 347 349 347 344 339 338 349 347 345 341 338 337 337 336
340 340 340 340 340 340 340 339 339 340 332 335 340 346 346 348 348 352 351 350 346 347 352 353 345 355 356 349 347 345 347 344 340 337 339 349 343 337 338 338 337 336 336
341 341 341 341 341 340 340 339 340 341 336 336 344 350 350 352 353 353 350 348 350 352 353 354 348 353 353 349 348 348 341 339 338 336 332 336 335 338 339 338 337 336 335
343 344 342 341 341 343 342 332 340 342 340 343 348 350 350 352 352 350 348 348 350 350 350 355 351 354 354 350 349 351 347 346 328 333 333 333 332 336 336 336 327 329 335
345 345 345 344 343 345 346 330 332 340 342 337 345 348 349 349 349 345 347 349 348 351 352 355 351 352 353 353 348 347 348 348 334 322 327 325 325 321 320 321 320 321 329
345 346 346 345 344 347 348 347 332 329 335 333 342 347 347 346 346 346 349 347 348 351 353 355 352 352 353 354 355 349 348 349 337 319 316 317 319 318 319 320 321 327 332
346 346 346 346 346 347 349 349 348 331 330 331 339 343 343 344 344 346 345 347 349 351 352 353 352 354 353 355 355 352 348 349 345 341 324 317 320 319 319 320 323 326 332
347 346 347 346 347 348 349 349 350 348 336 334 330 337 343 343 343 344 344 344 346 351 353 354 353 354 352 356 358 357 351 348 350 345 336 316 319 319 319 322 324 324 328
346 346 346 348 347 348 349 349 349 350 349 337 336 332 335 336 336 339 344 346 348 356 357 354 353 353 349 355 356 359 354 349 349 348 340 313 312 319 319 325 323 319 328
347 347 346 347 349 351 349 349 349 349 349 350 344 339 337 336 335 333 330 340 345 353 356 354 354 352 350 352 354 357 355 352 348 348 341 317 310 317 320 322 319 318 325
345 346 347 347 348 348 350 351 350 349 349 350 351 348 343 339 338 337 331 328 340 347 350 352 350 349 354 350 352 352 356 354 349 347 347 325 314 315 316 316 318 324 326
353 350 350 350 349 349 348 349 352 351 349 350 350 351 349 345 343 341 339 334 337 346 347 348 347 344 342 347 351 351 351 357 351 348 347 329 312 313 317 314 316 323 326
351 348 346 347 349 350 350 349 350 354 357 355 353 351 350 349 346 345 343 342 339 336 338 339 339 343 339 341 349 352 351 358 355 350 346 331 313 314 314 312 314 320 326
350 349 348 344 344 349 349 350 350 351 354 356 353 355 351 349 345 345 346 346 344 343 340 336 335 335 337 342 345 350 351 358 357 350 346 338 314 313 312 313 317 322 324
346 349 348 347 348 346 350 349 347 345 344 346 353 351 355 352 350 347 348 349 348 349 348 347 347 346 344 344 347 348 350 355 358 351 347 341 316 311 312 315 318 321 323
341 344 348 348 345 349 351 349 338 338 340 338 347 352 353 356 352 352 350 351 350 351 351 350 349 350 348 346 349 348 352 353 355 353 348 339 313 312 314 317 319 319 317
340 342 344 346 347 349 348 347 345 340 338 345 349 349 353 355 353 355 355 354 354 355 357 356 354 353 351 350 349 348 353 352 356 355 348 337 318 313 316 319 320 319 319
340 341 342 343 345 346 347 348 349 342 341 351 351 356 358 358 356 358 359 359 360 359 360 359 358 356 352 350 352 349 350 352 357 354 348 334 327 318 317 320 321 321 321
339 340 341 341 342 343 345 346 351 352 354 358 353 352 357 360 360 361 361 361 361 361 361 360 359 359 355 351 352 349 349 352 356 352 348 335 329 323 314 322 322 323 321
335 338 339 340 340 340 343 347 349 349 350 356 358 359 358 357 358 359 361 360 361 361 359 359 359 358 356 354 355 352 348 351 355 354 346 336 330 321 314 321 324 324 323
333 334 336 337 338 339 340 342 345 346 346 352 353 354 356 355 356 358 361 360 359 359 359 359 359 359 358 355 355 352 349 348 350 353 351 342 332 319 312 319 325 324 324
333 333 334 335 336 337 338 340 341 343 346 350 354 357 356 353 355 357 359 360 360 360 361 359 357 358 358 358 355 354 353 352 349 349 350 344 339 323 311 316 324 323 325
333 333 333 334 334 335 337 338 338 341 345 348 350 354 357 358 361 360 358 359 361 361 360 358 357 348 357 357 355 353 354 352 349 349 351 345 339 327 311 313 316 324 325
333 332 332 332 333 333 334 336 338 339 343 346 347 349 352 356 358 358 358 359 359 360 359 356 352 353 352 348 349 353 350 348 350 351 349 344 341 330 312 311 316 324 324
330 331 330 330 331 331 332 333 336 338 340 344 344 346 348 349 350 351 353 354 356 356 357 356 355 354 350 351 348 347 349 347 345 351 350 346 343 332 313 311 319 324 323
327 328 329 329 329 329 329 330 331 337 337 340 343 344 345 346 349 349 350 350 350 349 347 346 347 348 350 350 350 349 347 350 349 349 347 345 344 340 322 311 322 324 323